User: anonymous   Login
Location: Ar Ranvel
(48.3000°N, 4.8833°W)
Time: 19:18:36
(UTC+00:00)
Language:

COSMOS 2251 DEB - Orbit

View from above orbital plane
View from above orbital plane
View from above satellite
View from above satellite

Ground track
Ground track

The orbit data is extracted from the following two-line orbital elements,

1 35895U 93036AUJ 24112.22263738  .00008836  00000-0  52776-2 0  9998
2 35895  74.0495 305.6831 0216359 182.9068 177.0825 13.96294919516899
Epoch (UTC): 21 April 2024 05:20:35
Eccentricity: 0.0216359
inclination: 74.0495°
perigee height: 749 km
apogee height: 1064 km
right ascension of ascending node: 305.6831°
argument of perigee: 182.9068°
revolutions per day: 13.96294919
mean anomaly at epoch: 177.0825°
orbit number at epoch: 51689

The dashed part of the orbit path shows where the satellite is in the earth's shadow,  

DLR